STARLINK-36045

Last updated on Mon Dec 15 2025 00:02:11 GMT+0000 (Coordinated Universal Time)

1 66811U 25278W 25348.25003472 -.01339060 00000+0 -70051-2 0 9999 2 66811 42.9974 242.7272 0001844 277.3825 140.1579 15.82751398 3207
UTC large
Height (km)
Speed (km/s)
/
Latitude / Longitude
Inclination (degrees)
Orbital Period (minutes)
Azimuth
Elevation
Range (km)
Doppler Factor

Next 0 passes for location: London (51.5072 / 0.1276)

Sorry there are no passes over London.